| time (UTC) | temp F | wind direction | speed MPH | gust MPH | rain 1hr in | rain 24hr in | rain mn in | humidity % | barometer mb |
| 20260507210506 | 59 | 288 | 9.0 | 24.0 | 0.00 | 0.00 | 0.00 | 46 | 1010.3 |
| 20260507210032 | 67 | 86 | 1.0 | 3.0 | 0.00 | 0.00 | 0.00 | 46 | 1017.6 |
| 20260507210016 | 60 | 215 | 7.0 | 21.0 | 0.00 | 0.00 | 0.00 | 48 | 1009.8 |
| 20260507205504 | 60 | 245 | 8.0 | 21.0 | 0.00 | 0.00 | 0.00 | 49 | 1009.8 |
| 20260507205009 | 60 | 207 | 5.0 | 12.0 | 0.00 | 0.00 | 0.00 | 50 | 1009.8 |
| 20260507204518 | 60 | 199 | 5.0 | 15.0 | 0.00 | 0.00 | 0.00 | 50 | 1009.8 |
| 20260507204514 | 67 | 38 | 0.0 | 2.0 | 0.00 | 0.00 | 0.00 | 47 | 1018.0 |
| 20260507204012 | 60 | 254 | 7.0 | 18.0 | 0.00 | 0.00 | 0.00 | 49 | 1009.9 |
| 20260507203510 | 61 | 211 | 6.0 | 18.0 | 0.00 | 0.00 | 0.00 | 48 | 1009.8 |
| 20260507203026 | 61 | 211 | 9.0 | 22.0 | 0.00 | 0.00 | 0.00 | 48 | 1010.0 |
| 20260507203011 | 67 | 51 | 1.0 | 5.0 | 0.00 | 0.00 | 0.00 | 46 | 1017.8 |
| 20260507202506 | 61 | 163 | 7.0 | 22.0 | 0.00 | 0.00 | 0.00 | 48 | 1009.9 |
| 20260507202010 | 61 | 198 | 6.0 | 18.0 | 0.00 | 0.00 | 0.00 | 48 | 1010.1 |
| 20260507201527 | 61 | 200 | 4.0 | 18.0 | 0.00 | 0.00 | 0.00 | 49 | 1010.2 |
| 20260507201510 | 68 | 79 | 0.0 | 5.0 | 0.00 | 0.00 | 0.00 | 46 | 1018.2 |
| 20260507201006 | 60 | 254 | 8.0 | 17.0 | 0.00 | 0.00 | 0.00 | 50 | 1010.2 |
| 20260507200504 | 60 | 174 | 5.0 | 17.0 | 0.00 | 0.00 | 0.00 | 49 | 1010.3 |
| 20260507200016 | 60 | 178 | 8.0 | 17.0 | 0.00 | 0.00 | 0.00 | 49 | 1010.6 |
| 20260507200006 | 68 | 62 | 4.0 | 6.0 | 0.00 | 0.00 | 0.00 | 45 | 1018.4 |
| 20260507195504 | 60 | 251 | 7.0 | 17.0 | 0.00 | 0.00 | 0.00 | 49 | 1010.6 |
| 20260507195006 | 60 | 209 | 8.0 | 17.0 | 0.00 | 0.00 | 0.00 | 50 | 1010.6 |
| 20260507194518 | 60 | 173 | 9.0 | 22.0 | 0.00 | 0.00 | 0.00 | 50 | 1010.8 |
| 20260507194504 | 68 | 38 | 3.0 | 6.0 | 0.00 | 0.00 | 0.00 | 45 | 1018.6 |
| 20260507194005 | 59 | 226 | 11.0 | 22.0 | 0.00 | 0.00 | 0.00 | 49 | 1010.8 |
| 20260507193506 | 59 | 217 | 8.0 | 21.0 | 0.00 | 0.00 | 0.00 | 49 | 1010.9 |
| 20260507193020 | 59 | 273 | 11.0 | 21.0 | 0.00 | 0.00 | 0.00 | 48 | 1011.1 |
| 20260507193004 | 69 | 104 | 4.0 | 8.0 | 0.00 | 0.00 | 0.00 | 43 | 1018.4 |
| 20260507192507 | 60 | 210 | 9.0 | 18.0 | 0.00 | 0.00 | 0.00 | 48 | 1011.2 |
| 20260507192016 | 60 | 170 | 10.0 | 25.0 | 0.00 | 0.00 | 0.00 | 46 | 1011.3 |
| 20260507191558 | 68 | 26 | 4.0 | 9.0 | 0.00 | 0.00 | 0.00 | 46 | 1018.3 |
| 20260507191524 | 60 | 238 | 10.0 | 25.0 | 0.00 | 0.00 | 0.00 | 45 | 1011.4 |
| 20260507191007 | 61 | 225 | 7.0 | 20.0 | 0.00 | 0.00 | 0.00 | 44 | 1011.4 |
| 20260507190511 | 61 | 231 | 10.0 | 29.0 | 0.00 | 0.00 | 0.00 | 43 | 1011.4 |
| 20260507190056 | 67 | 64 | 5.0 | 8.0 | 0.00 | 0.00 | 0.00 | 46 | 1018.5 |
| 20260507190025 | 61 | 223 | 8.0 | 29.0 | 0.00 | 0.00 | 0.00 | 42 | 1011.2 |
| 20260507185507 | 60 | 235 | 7.0 | 19.0 | 0.00 | 0.00 | 0.00 | 41 | 1011.3 |
| 20260507185003 | 60 | 261 | 13.0 | 19.0 | 0.00 | 0.00 | 0.00 | 41 | 1011.5 |
| 20260507184603 | 66 | 61 | 3.0 | 6.0 | 0.00 | 0.00 | 0.00 | 47 | 1018.8 |
| 20260507184514 | 61 | 265 | 6.0 | 19.0 | 0.00 | 0.00 | 0.00 | 40 | 1011.5 |
| 20260507184006 | 61 | 215 | 10.0 | 18.0 | 0.00 | 0.00 | 0.00 | 41 | 1011.5 |
| 20260507183504 | 60 | 194 | 6.0 | 21.0 | 0.00 | 0.00 | 0.00 | 41 | 1011.4 |
| 20260507183050 | 67 | 56 | 2.0 | 7.0 | 0.00 | 0.00 | 0.00 | 45 | 1019.4 |
| 20260507183032 | 60 | 198 | 8.0 | 22.0 | 0.00 | 0.00 | 0.00 | 40 | 1011.6 |
| 20260507182504 | 60 | 227 | 10.0 | 22.0 | 0.00 | 0.00 | 0.00 | 39 | 1011.7 |
| 20260507182007 | 60 | 241 | 7.0 | 18.0 | 0.00 | 0.00 | 0.00 | 38 | 1011.7 |
| 20260507181547 | 67 | 46 | 1.0 | 6.0 | 0.00 | 0.00 | 0.00 | 45 | 1019.4 |
| 20260507181522 | 60 | 197 | 9.0 | 18.0 | 0.00 | 0.00 | 0.00 | 37 | 1011.7 |
| 20260507181013 | 60 | 243 | 9.0 | 16.0 | 0.00 | 0.00 | 0.00 | 38 | 1011.8 |
| 20260507180509 | 60 | 240 | 3.0 | 11.0 | 0.00 | 0.00 | 0.00 | 39 | 1011.8 |
| 20260507180045 | 68 | 72 | 3.0 | 8.0 | 0.00 | 0.00 | 0.00 | 45 | 1019.6 |
| 20260507180036 | 60 | 200 | 5.0 | 12.0 | 0.00 | 0.00 | 0.00 | 38 | 1012.0 |
| 20260507175509 | 60 | 267 | 4.0 | 12.0 | 0.00 | 0.00 | 0.00 | 39 | 1012.1 |
| 20260507175008 | 59 | 231 | 4.0 | 20.0 | 0.00 | 0.00 | 0.00 | 38 | 1012.2 |
| 20260507174548 | 68 | 53 | 1.0 | 7.0 | 0.00 | 0.00 | 0.00 | 48 | 1019.7 |
| 20260507174534 | 59 | 207 | 5.0 | 20.0 | 0.00 | 0.00 | 0.00 | 39 | 1012.4 |
| 20260507174004 | 60 | 199 | 8.0 | 14.0 | 0.00 | 0.00 | 0.00 | 38 | 1012.5 |
| 20260507173513 | 60 | 152 | 2.0 | 16.0 | 0.00 | 0.00 | 0.00 | 39 | 1012.6 |
| 20260507173040 | 69 | 70 | 3.0 | 8.0 | 0.00 | 0.00 | 0.00 | 46 | 1019.6 |
| 20260507173017 | 60 | 232 | 8.0 | 16.0 | 0.00 | 0.00 | 0.00 | 38 | 1012.7 |
| 20260507172505 | 59 | 206 | 3.0 | 14.0 | 0.00 | 0.00 | 0.00 | 39 | 1012.7 |
| 20260507172008 | 59 | 192 | 6.0 | 14.0 | 0.00 | 0.00 | 0.00 | 38 | 1012.8 |
| 20260507171540 | 68 | 77 | 1.0 | 11.0 | 0.00 | 0.00 | 0.00 | 47 | 1019.7 |
| 20260507171522 | 59 | 218 | 6.0 | 13.0 | 0.00 | 0.00 | 0.00 | 40 | 1013.0 |
| 20260507171009 | 58 | 186 | 3.0 | 12.0 | 0.00 | 0.00 | 0.00 | 39 | 1013.1 |
| 20260507170511 | 58 | 180 | 4.0 | 12.0 | 0.00 | 0.00 | 0.00 | 39 | 1013.3 |
| 20260507170029 | 66 | 61 | 3.0 | 8.0 | 0.00 | 0.00 | 0.00 | 49 | 1019.5 |
| 20260507170026 | 58 | 271 | 4.0 | 12.0 | 0.00 | 0.00 | 0.00 | 38 | 1013.2 |
| 20260507165508 | 58 | 194 | 4.0 | 12.0 | 0.00 | 0.00 | 0.00 | 38 | 1013.2 |
| 20260507165010 | 58 | 87 | 2.0 | 12.0 | 0.00 | 0.00 | 0.00 | 39 | 1013.3 |
| 20260507164527 | 58 | 208 | 4.0 | 12.0 | 0.00 | 0.00 | 0.00 | 39 | 1013.4 |
| 20260507164009 | 58 | 214 | 7.0 | 12.0 | 0.00 | 0.00 | 0.00 | 38 | 1013.6 |
| 20260507163508 | 57 | 92 | 2.0 | 9.0 | 0.00 | 0.00 | 0.00 | 39 | 1013.6 |
| 20260507163025 | 57 | 198 | 4.0 | 10.0 | 0.00 | 0.00 | 0.00 | 40 | 1013.8 |
| 20260507163021 | 65 | 42 | 5.0 | 10.0 | 0.00 | 0.00 | 0.00 | 48 | 1020.3 |
| 20260507162504 | 56 | 346 | 4.0 | 10.0 | 0.00 | 0.00 | 0.00 | 41 | 1013.9 |
| 20260507162007 | 56 | 214 | 2.0 | 10.0 | 0.00 | 0.00 | 0.00 | 39 | 1014.0 |
| 20260507161533 | 56 | 265 | 3.0 | 10.0 | 0.00 | 0.00 | 0.00 | 39 | 1014.1 |
| 20260507161520 | 63 | 50 | 4.0 | 10.0 | 0.00 | 0.00 | 0.00 | 49 | 1020.5 |
| 20260507161008 | 56 | 182 | 3.0 | 10.0 | 0.00 | 0.00 | 0.00 | 39 | 1014.2 |
| 20260507160510 | 55 | 211 | 4.0 | 11.0 | 0.00 | 0.00 | 0.00 | 40 | 1014.4 |
| 20260507160034 | 55 | 198 | 5.0 | 11.0 | 0.00 | 0.00 | 0.00 | 42 | 1014.4 |
| 20260507160021 | 65 | 7 | 6.0 | 10.0 | 0.00 | 0.00 | 0.00 | 48 | 1020.6 |
| 20260507155506 | 54 | 43 | 3.0 | 10.0 | 0.00 | 0.00 | 0.00 | 41 | 1014.4 |
| 20260507155010 | 53 | 298 | 4.0 | 10.0 | 0.00 | 0.00 | 0.00 | 43 | 1014.5 |
| 20260507154532 | 53 | 280 | 3.0 | 9.0 | 0.00 | 0.00 | 0.00 | 41 | 1014.4 |
| 20260507154524 | 64 | 15 | 5.0 | 9.0 | 0.00 | 0.01 | 0.00 | 49 | 1020.5 |
| 20260507154010 | 53 | 164 | 2.0 | 7.0 | 0.00 | 0.00 | 0.00 | 43 | 1014.5 |
| 20260507153510 | 53 | 247 | 3.0 | 10.0 | 0.00 | 0.00 | 0.00 | 42 | 1014.5 |
| 20260507153026 | 53 | 265 | 4.0 | 10.0 | 0.00 | 0.00 | 0.00 | 42 | 1014.7 |
| 20260507153019 | 64 | 328 | 4.0 | 10.0 | 0.00 | 0.01 | 0.00 | 50 | 1020.6 |
| 20260507152512 | 53 | 186 | 2.0 | 10.0 | 0.00 | 0.00 | 0.00 | 43 | 1014.8 |
| 20260507152011 | 53 | 216 | 3.0 | 10.0 | 0.00 | 0.00 | 0.00 | 43 | 1014.8 |
| 20260507151533 | 52 | 141 | 4.0 | 10.0 | 0.00 | 0.00 | 0.00 | 45 | 1014.9 |
| 20260507151505 | 63 | 297 | 5.0 | 9.0 | 0.00 | 0.01 | 0.00 | 50 | 1020.5 |
| 20260507151006 | 52 | 294 | 5.0 | 8.0 | 0.00 | 0.00 | 0.00 | 45 | 1015.0 |
| 20260507150507 | 52 | 261 | 4.0 | 8.0 | 0.00 | 0.00 | 0.00 | 45 | 1015.0 |
| 20260507150101 | 62 | 13 | 2.0 | 10.0 | 0.00 | 0.01 | 0.00 | 51 | 1020.6 |
| 20260507150021 | 51 | 248 | 3.0 | 7.0 | 0.00 | 0.00 | 0.00 | 46 | 1015.1 |
| 20260507145507 | 51 | 146 | 2.0 | 8.0 | 0.00 | 0.00 | 0.00 | 47 | 1015.1 |
| 20260507145007 | 50 | 216 | 3.0 | 9.0 | 0.00 | 0.00 | 0.00 | 46 | 1015.1 |
| 20260507144559 | 61 | 44 | 4.0 | 10.0 | 0.00 | 0.01 | 0.00 | 50 | 1020.8 |
| 20260507144524 | 50 | 220 | 2.0 | 9.0 | 0.00 | 0.00 | 0.00 | 47 | 1015.2 |
| 20260507144011 | 51 | 284 | 2.0 | 8.0 | 0.00 | 0.00 | 0.00 | 47 | 1015.5 |
| 20260507143511 | 50 | 188 | 3.0 | 8.0 | 0.00 | 0.00 | 0.00 | 48 | 1015.5 |
| 20260507143101 | 60 | 34 | 3.0 | 8.0 | 0.00 | 0.01 | 0.00 | 49 | 1020.8 |
| 20260507143027 | 50 | 279 | 3.0 | 6.0 | 0.00 | 0.00 | 0.00 | 49 | 1015.4 |
| 20260507142507 | 49 | 246 | 3.0 | 6.0 | 0.00 | 0.00 | 0.00 | 50 | 1015.5 |
| 20260507142010 | 49 | 249 | 3.0 | 8.0 | 0.00 | 0.00 | 0.00 | 50 | 1015.6 |
| 20260507141545 | 58 | 56 | 1.0 | 7.0 | 0.00 | 0.01 | 0.00 | 50 | 1020.9 |
| 20260507141530 | 49 | 275 | 4.0 | 8.0 | 0.00 | 0.00 | 0.00 | 48 | 1015.6 |
| 20260507141007 | 49 | 253 | 4.0 | 8.0 | 0.00 | 0.00 | 0.00 | 50 | 1015.6 |
| 20260507140503 | 48 | 215 | 1.0 | 6.0 | 0.00 | 0.00 | 0.00 | 50 | 1015.6 |
| 20260507140041 | 57 | 105 | 1.0 | 7.0 | 0.00 | 0.01 | 0.00 | 48 | 1020.9 |
| 20260507140020 | 48 | 199 | 2.0 | 5.0 | 0.00 | 0.00 | 0.00 | 50 | 1015.5 |
| 20260507135506 | 48 | 239 | 2.0 | 5.0 | 0.00 | 0.00 | 0.00 | 51 | 1015.5 |
| 20260507135011 | 48 | 230 | 2.0 | 7.0 | 0.00 | 0.00 | 0.00 | 53 | 1015.6 |
| 20260507134538 | 56 | 358 | 3.0 | 7.0 | 0.00 | 0.01 | 0.00 | 44 | 1021.0 |
| 20260507134516 | 47 | 191 | 3.0 | 7.0 | 0.00 | 0.00 | 0.00 | 53 | 1015.7 |
| 20260507134003 | 47 | 172 | 2.0 | 6.0 | 0.00 | 0.00 | 0.00 | 53 | 1015.8 |
| 20260507133507 | 46 | 226 | 2.0 | 9.0 | 0.00 | 0.00 | 0.00 | 54 | 1015.8 |
| 20260507133034 | 55 | 337 | 0.0 | 3.0 | 0.00 | 0.01 | 0.00 | 35 | 1021.2 |
| 20260507133010 | 46 | 271 | 4.0 | 9.0 | 0.00 | 0.00 | 0.00 | 55 | 1015.8 |
| 20260507132507 | 46 | 234 | 2.0 | 8.0 | 0.00 | 0.00 | 0.00 | 57 | 1015.8 |
| 20260507132005 | 46 | 267 | 1.0 | 8.0 | 0.00 | 0.00 | 0.00 | 58 | 1015.8 |
| 20260507131529 | 54 | 319 | 0.0 | 3.0 | 0.00 | 0.01 | 0.00 | 32 | 1021.3 |
| 20260507131517 | 45 | 246 | 2.0 | 6.0 | 0.00 | 0.00 | 0.00 | 59 | 1015.8 |
| 20260507131004 | 45 | 222 | 2.0 | 6.0 | 0.00 | 0.00 | 0.00 | 60 | 1015.8 |
| 20260507130506 | 44 | 215 | 2.0 | 5.0 | 0.00 | 0.00 | 0.00 | 61 | 1015.8 |
| 20260507130036 | 53 | 321 | 0.0 | 4.0 | 0.00 | 0.01 | 0.00 | 32 | 1021.2 |
| 20260507130017 | 44 | 204 | 1.0 | 4.0 | 0.00 | 0.00 | 0.00 | 62 | 1015.8 |
| 20260507125503 | 44 | 209 | 1.0 | 5.0 | 0.00 | 0.00 | 0.00 | 64 | 1015.9 |
| 20260507125011 | 43 | 237 | 3.0 | 5.0 | 0.00 | 0.00 | 0.00 | 64 | 1015.8 |
| 20260507124528 | 53 | 320 | 0.0 | 3.0 | 0.00 | 0.01 | 0.00 | 32 | 1021.4 |
| 20260507124524 | 43 | 192 | 3.0 | 5.0 | 0.00 | 0.00 | 0.00 | 65 | 1015.8 |
| 20260507124008 | 42 | 260 | 1.0 | 3.0 | 0.00 | 0.00 | 0.00 | 67 | 1015.8 |
| 20260507123509 | 42 | 219 | 2.0 | 3.0 | 0.00 | 0.00 | 0.00 | 69 | 1015.7 |
| 20260507123023 | 53 | 285 | 4.0 | 5.0 | 0.00 | 0.01 | 0.00 | 33 | 1021.5 |
| 20260507123008 | 41 | 230 | 0.0 | 3.0 | 0.00 | 0.00 | 0.00 | 71 | 1015.8 |
| 20260507122504 | 41 | 271 | 1.0 | 3.0 | 0.00 | 0.00 | 0.00 | 75 | 1015.7 |
| 20260507122003 | 40 | 215 | 1.0 | 3.0 | 0.00 | 0.00 | 0.00 | 77 | 1015.6 |
| 20260507121515 | 0 | 0.0 | 0.0 | 0.00 | 0.01 | 0.00 | 1021.0 | ||
| 20260507121508 | 40 | 209 | 0.0 | 2.0 | 0.00 | 0.00 | 0.00 | 79 | 1015.5 |
| 20260507121004 | 39 | 246 | 0.0 | 3.0 | 0.00 | 0.00 | 0.00 | 81 | 1015.5 |
| 20260507120512 | 39 | 220 | 0.0 | 3.0 | 0.00 | 0.00 | 0.00 | 83 | 1015.5 |
| 20260507120019 | 0 | 0.0 | 0.0 | 0.00 | 0.01 | 0.00 | 1020.8 | ||
| 20260507120015 | 38 | 217 | 1.0 | 3.0 | 0.00 | 0.00 | 0.00 | 85 | 1015.5 |
| 20260507115504 | 38 | 217 | 1.0 | 4.0 | 0.00 | 0.00 | 0.00 | 87 | 1015.5 |
| 20260507115006 | 38 | 228 | 1.0 | 4.0 | 0.00 | 0.00 | 0.00 | 88 | 1015.5 |
| 20260507114610 | 0 | 0.0 | 0.0 | 0.00 | 0.01 | 0.00 | 1020.9 | ||
| 20260507114526 | 38 | 247 | 0.0 | 1.0 | 0.00 | 0.00 | 0.00 | 90 | 1015.4 |
| 20260507114007 | 37 | 247 | 0.0 | 1.0 | 0.00 | 0.00 | 0.00 | 91 | 1015.4 |
| 20260507113509 | 37 | 247 | 0.0 | 0.0 | 0.00 | 0.00 | 0.00 | 91 | 1015.5 |
| 20260507113102 | 0 | 0.0 | 0.0 | 0.00 | 0.01 | 0.00 | 1020.8 | ||
| 20260507113024 | 36 | 247 | 0.0 | 0.0 | 0.00 | 0.00 | 0.00 | 90 | 1015.4 |
| 20260507112507 | 36 | 247 | 0.0 | 0.0 | 0.00 | 0.00 | 0.00 | 90 | 1015.4 |
| 20260507112007 | 36 | 247 | 0.0 | 0.0 | 0.00 | 0.00 | 0.00 | 90 | 1015.3 |
| 20260507111555 | 0 | 321 | 0.0 | 3.0 | 0.00 | 0.01 | 0.00 | 36 | 1021.0 |
| 20260507111516 | 35 | 247 | 0.0 | 0.0 | 0.00 | 0.00 | 0.00 | 90 | 1015.3 |
| 20260507111003 | 35 | 247 | 0.0 | 0.0 | 0.00 | 0.00 | 0.00 | 89 | 1015.3 |
| 20260507110503 | 35 | 247 | 0.0 | 0.0 | 0.00 | 0.00 | 0.00 | 89 | 1015.2 |
| 20260507110051 | 55 | 298 | 0.0 | 3.0 | 0.00 | 0.01 | 0.00 | 36 | 1020.9 |
| 20260507110010 | 35 | 247 | 0.0 | 0.0 | 0.00 | 0.00 | 0.00 | 89 | 1015.2 |
| 20260507105505 | 35 | 247 | 0.0 | 0.0 | 0.00 | 0.00 | 0.00 | 89 | 1015.2 |
| 20260507105003 | 34 | 247 | 0.0 | 0.0 | 0.00 | 0.00 | 0.00 | 89 | 1015.2 |
| 20260507104547 | 55 | 314 | 0.0 | 2.0 | 0.00 | 0.01 | 0.00 | 36 | 1020.6 |
| 20260507104516 | 34 | 247 | 0.0 | 0.0 | 0.00 | 0.00 | 0.00 | 88 | 1015.2 |
| 20260507104007 | 35 | 247 | 0.0 | 0.0 | 0.00 | 0.00 | 0.00 | 89 | 1015.2 |
| 20260507103504 | 35 | 247 | 0.0 | 0.0 | 0.00 | 0.00 | 0.00 | 89 | 1015.3 |
| 20260507103044 | 55 | 34 | 0.0 | 3.0 | 0.00 | 0.01 | 0.00 | 35 | 1020.3 |
| 20260507103023 | 35 | 247 | 0.0 | 0.0 | 0.00 | 0.00 | 0.00 | 88 | 1015.3 |
| 20260507102507 | 35 | 247 | 0.0 | 0.0 | 0.00 | 0.00 | 0.00 | 88 | 1015.2 |
| 20260507102007 | 35 | 247 | 0.0 | 0.0 | 0.00 | 0.00 | 0.00 | 88 | 1015.2 |
| 20260507101544 | 55 | 287 | 0.0 | 0.0 | 0.00 | 0.01 | 0.00 | 36 | 1020.3 |
| 20260507101524 | 35 | 247 | 0.0 | 0.0 | 0.00 | 0.00 | 0.00 | 88 | 1015.2 |
| 20260507101014 | 35 | 247 | 0.0 | 0.0 | 0.00 | 0.00 | 0.00 | 88 | 1015.2 |
| 20260507100509 | 35 | 247 | 0.0 | 0.0 | 0.00 | 0.00 | 0.00 | 88 | 1015.3 |
| 20260507100041 | 55 | 287 | 0.0 | 0.0 | 0.00 | 0.01 | 0.00 | 36 | 1020.0 |
| 20260507100008 | 35 | 247 | 0.0 | 0.0 | 0.00 | 0.00 | 0.00 | 88 | 1015.3 |
| 20260507095504 | 35 | 247 | 0.0 | 0.0 | 0.00 | 0.00 | 0.00 | 88 | 1015.4 |
| 20260507095003 | 36 | 247 | 0.0 | 0.0 | 0.00 | 0.00 | 0.00 | 88 | 1015.4 |
| 20260507094535 | 55 | 287 | 0.0 | 0.0 | 0.00 | 0.01 | 0.00 | 36 | 1019.7 |
| 20260507094513 | 36 | 247 | 0.0 | 0.0 | 0.00 | 0.00 | 0.00 | 87 | 1015.4 |
| 20260507094004 | 36 | 247 | 0.0 | 0.0 | 0.00 | 0.00 | 0.00 | 87 | 1015.2 |
| 20260507093505 | 36 | 247 | 0.0 | 0.0 | 0.00 | 0.00 | 0.00 | 87 | 1015.2 |
| 20260507093032 | 55 | 276 | 0.0 | 0.0 | 0.00 | 0.01 | 0.00 | 36 | 1019.3 |
| 20260507093015 | 36 | 247 | 0.0 | 0.0 | 0.00 | 0.00 | 0.00 | 87 | 1015.3 |
| 20260507092504 | 36 | 247 | 0.0 | 0.0 | 0.00 | 0.00 | 0.00 | 86 | 1015.4 |
| 20260507092007 | 36 | 247 | 0.0 | 0.0 | 0.00 | 0.00 | 0.00 | 86 | 1015.3 |
| 20260507091529 | 55 | 348 | 0.0 | 4.0 | 0.00 | 0.01 | 0.00 | 36 | 1019.0 |
| 20260507091524 | 36 | 247 | 0.0 | 0.0 | 0.00 | 0.00 | 0.00 | 86 | 1015.3 |
| 20260507091009 | 37 | 247 | 0.0 | 0.0 | 0.00 | 0.00 | 0.00 | 86 | 1015.3 |
| 20260507090507 | 37 | 247 | 0.0 | 0.0 | 0.00 | 0.00 | 0.00 | 85 | 1015.3 |
| 20260507090035 | 37 | 247 | 0.0 | 0.0 | 0.00 | 0.00 | 0.00 | 85 | 1015.3 |
| 20260507090026 | 55 | 300 | 0.0 | 5.0 | 0.00 | 0.01 | 0.00 | 35 | 1018.2 |
| 20260507085508 | 37 | 247 | 0.0 | 0.0 | 0.00 | 0.00 | 0.00 | 85 | 1015.4 |
| 20260507085006 | 37 | 247 | 0.0 | 0.0 | 0.00 | 0.00 | 0.00 | 84 | 1015.4 |
| 20260507084523 | 55 | 17 | 1.0 | 6.0 | 0.00 | 0.01 | 0.00 | 32 | 1018.2 |
| 20260507084510 | 37 | 247 | 0.0 | 0.0 | 0.00 | 0.00 | 0.00 | 84 | 1015.4 |
| 20260507084005 | 37 | 247 | 0.0 | 0.0 | 0.00 | 0.00 | 0.00 | 84 | 1015.4 |
| 20260507083503 | 37 | 247 | 0.0 | 0.0 | 0.00 | 0.00 | 0.00 | 84 | 1015.4 |
| 20260507083022 | 55 | 341 | 1.0 | 5.0 | 0.00 | 0.01 | 0.00 | 31 | 1018.2 |
| 20260507083016 | 37 | 247 | 0.0 | 0.0 | 0.00 | 0.00 | 0.00 | 84 | 1015.4 |
| 20260507082504 | 37 | 247 | 0.0 | 0.0 | 0.00 | 0.00 | 0.00 | 83 | 1015.3 |
| 20260507082005 | 37 | 247 | 0.0 | 0.0 | 0.00 | 0.00 | 0.00 | 83 | 1015.2 |
| 20260507081520 | 37 | 247 | 0.0 | 0.0 | 0.00 | 0.00 | 0.00 | 83 | 1015.3 |
| 20260507081007 | 38 | 247 | 0.0 | 0.0 | 0.00 | 0.00 | 0.00 | 83 | 1015.4 |
| 20260507080510 | 38 | 247 | 0.0 | 1.0 | 0.00 | 0.00 | 0.00 | 83 | 1015.5 |
| 20260507080022 | 38 | 247 | 0.0 | 1.0 | 0.00 | 0.00 | 0.00 | 83 | 1015.4 |
| 20260507080017 | 55 | 317 | 0.0 | 0.0 | 0.00 | 0.01 | 0.00 | 32 | 1018.5 |
| 20260507075508 | 38 | 247 | 0.0 | 1.0 | 0.00 | 0.00 | 0.00 | 83 | 1015.4 |
| 20260507075006 | 38 | 247 | 0.0 | 1.0 | 0.00 | 0.00 | 0.00 | 83 | 1015.4 |
| 20260507074538 | 38 | 247 | 0.0 | 1.0 | 0.00 | 0.00 | 0.00 | 83 | 1015.4 |
| 20260507074515 | 55 | 329 | 0.0 | 0.0 | 0.00 | 0.01 | 0.00 | 31 | 1018.6 |
| 20260507074008 | 38 | 247 | 0.0 | 0.0 | 0.00 | 0.00 | 0.00 | 82 | 1015.4 |
| 20260507073507 | 38 | 247 | 0.0 | 0.0 | 0.00 | 0.00 | 0.00 | 82 | 1015.5 |
| 20260507073013 | 55 | 329 | 0.0 | 0.0 | 0.00 | 0.01 | 0.00 | 31 | 1018.3 |
| 20260507073010 | 38 | 247 | 0.0 | 0.0 | 0.00 | 0.00 | 0.00 | 82 | 1015.5 |
| 20260507072507 | 38 | 247 | 0.0 | 0.0 | 0.00 | 0.00 | 0.00 | 82 | 1015.5 |
| 20260507072004 | 38 | 247 | 0.0 | 0.0 | 0.00 | 0.00 | 0.00 | 82 | 1015.5 |
| 20260507071529 | 55 | 60 | 0.0 | 1.0 | 0.00 | 0.01 | 0.00 | 31 | 1018.2 |
| 20260507071518 | 38 | 247 | 0.0 | 0.0 | 0.00 | 0.00 | 0.00 | 81 | 1015.6 |
| 20260507071005 | 38 | 247 | 0.0 | 0.0 | 0.00 | 0.00 | 0.00 | 81 | 1015.6 |
| 20260507070507 | 38 | 247 | 0.0 | 0.0 | 0.00 | 0.00 | 0.00 | 80 | 1015.7 |
| 20260507070022 | 38 | 247 | 0.0 | 0.0 | 0.00 | 0.00 | 0.00 | 79 | 1015.6 |
| 20260507065508 | 38 | 247 | 0.0 | 0.0 | 0.00 | 0.00 | 0.00 | 79 | 1015.6 |
| 20260507065008 | 39 | 247 | 0.0 | 0.0 | 0.00 | 0.00 | 0.00 | 79 | 1015.7 |
| 20260507064506 | 39 | 247 | 0.0 | 0.0 | 0.00 | 0.00 | 0.00 | 79 | 1015.7 |
| 20260507064504 | 55 | 77 | 0.0 | 0.0 | 0.00 | 0.01 | 0.00 | 31 | 1017.8 |
| 20260507064003 | 39 | 247 | 0.0 | 0.0 | 0.00 | 0.00 | 0.00 | 79 | 1015.7 |
| 20260507063504 | 39 | 247 | 0.0 | 0.0 | 0.00 | 0.00 | 0.00 | 78 | 1015.7 |
| 20260507063009 | 39 | 247 | 0.0 | 0.0 | 0.00 | 0.00 | 0.00 | 78 | 1015.7 |
| 20260507063001 | 55 | 61 | 1.0 | 5.0 | 0.00 | 0.01 | 0.00 | 31 | 1017.6 |
| 20260507062503 | 39 | 247 | 0.0 | 0.0 | 0.00 | 0.00 | 0.00 | 78 | 1015.7 |
| 20260507062003 | 39 | 247 | 0.0 | 0.0 | 0.00 | 0.00 | 0.00 | 77 | 1015.8 |
| 20260507061601 | 55 | 55 | 0.0 | 5.0 | 0.00 | 0.01 | 0.00 | 31 | 1017.5 |
| 20260507061514 | 39 | 247 | 0.0 | 0.0 | 0.00 | 0.00 | 0.00 | 77 | 1015.7 |
| 20260507061006 | 39 | 247 | 0.0 | 0.0 | 0.00 | 0.00 | 0.00 | 77 | 1015.7 |
| 20260507060504 | 40 | 247 | 0.0 | 0.0 | 0.00 | 0.00 | 0.00 | 77 | 1015.7 |
| 20260507060058 | 55 | 48 | 0.0 | 6.0 | 0.00 | 0.01 | 0.00 | 31 | 1017.7 |
| 20260507060017 | 40 | 247 | 0.0 | 0.0 | 0.00 | 0.00 | 0.00 | 78 | 1015.8 |
| 20260507055506 | 40 | 247 | 0.0 | 0.0 | 0.00 | 0.00 | 0.00 | 77 | 1015.8 |
| 20260507055011 | 40 | 247 | 0.0 | 0.0 | 0.00 | 0.00 | 0.00 | 77 | 1015.7 |
| 20260507054553 | 55 | 59 | 1.0 | 5.0 | 0.00 | 0.01 | 0.00 | 32 | 1017.7 |
| 20260507054522 | 40 | 247 | 0.0 | 0.0 | 0.00 | 0.00 | 0.00 | 76 | 1015.7 |
| 20260507054007 | 40 | 247 | 0.0 | 0.0 | 0.00 | 0.00 | 0.00 | 76 | 1015.7 |
| 20260507053508 | 41 | 247 | 0.0 | 0.0 | 0.00 | 0.00 | 0.00 | 75 | 1015.8 |
| 20260507053116 | 55 | 61 | 0.0 | 4.0 | 0.00 | 0.01 | 0.00 | 32 | 1017.6 |
| 20260507053007 | 41 | 247 | 0.0 | 0.0 | 0.00 | 0.00 | 0.00 | 75 | 1015.8 |
| 20260507052503 | 41 | 247 | 0.0 | 0.0 | 0.00 | 0.00 | 0.00 | 74 | 1015.8 |
| 20260507052007 | 42 | 247 | 0.0 | 0.0 | 0.00 | 0.00 | 0.00 | 74 | 1015.8 |
| 20260507051552 | 55 | 90 | 1.0 | 4.0 | 0.00 | 0.01 | 0.00 | 33 | 1017.5 |
| 20260507051512 | 42 | 247 | 0.0 | 0.0 | 0.00 | 0.00 | 0.00 | 73 | 1015.8 |
| 20260507051004 | 42 | 247 | 0.0 | 0.0 | 0.00 | 0.00 | 0.00 | 72 | 1015.8 |
| 20260507050503 | 42 | 247 | 0.0 | 0.0 | 0.00 | 0.00 | 0.00 | 71 | 1015.9 |
| 20260507050045 | 55 | 65 | 0.0 | 3.0 | 0.00 | 0.01 | 0.00 | 35 | 1017.4 |
| 20260507050015 | 43 | 247 | 0.0 | 0.0 | 0.00 | 0.00 | 0.00 | 70 | 1015.8 |
| 20260507045507 | 43 | 247 | 0.0 | 0.0 | 0.00 | 0.00 | 0.00 | 69 | 1015.8 |
| 20260507045007 | 44 | 247 | 0.0 | 0.0 | 0.00 | 0.00 | 0.00 | 68 | 1015.8 |
| 20260507044539 | 56 | 77 | 0.0 | 3.0 | 0.00 | 0.01 | 0.01 | 38 | 1017.5 |
| 20260507044518 | 44 | 247 | 0.0 | 1.0 | 0.00 | 0.00 | 0.00 | 65 | 1015.7 |
| 20260507044009 | 44 | 247 | 0.0 | 2.0 | 0.00 | 0.00 | 0.00 | 62 | 1015.6 |
| 20260507043507 | 44 | 252 | 0.0 | 2.0 | 0.00 | 0.00 | 0.00 | 56 | 1015.8 |
| 20260507043039 | 56 | 75 | 0.0 | 3.0 | 0.00 | 0.01 | 0.01 | 38 | 1017.7 |
| 20260507043026 | 44 | 257 | 0.0 | 2.0 | 0.00 | 0.00 | 0.00 | 56 | 1015.8 |
| 20260507042508 | 44 | 259 | 0.0 | 3.0 | 0.00 | 0.00 | 0.00 | 57 | 1015.8 |
| 20260507042003 | 44 | 259 | 0.0 | 3.0 | 0.00 | 0.00 | 0.00 | 55 | 1015.7 |
| 20260507041536 | 56 | 53 | 0.0 | 2.0 | 0.00 | 0.01 | 0.01 | 40 | 1017.9 |
| 20260507041510 | 45 | 259 | 0.0 | 3.0 | 0.00 | 0.00 | 0.00 | 54 | 1015.7 |
| 20260507041008 | 45 | 295 | 0.0 | 3.0 | 0.00 | 0.00 | 0.00 | 55 | 1015.7 |
| 20260507040506 | 45 | 323 | 0.0 | 3.0 | 0.00 | 0.00 | 0.00 | 54 | 1015.6 |
| 20260507040034 | 56 | 86 | 0.0 | 0.0 | 0.00 | 0.01 | 0.01 | 41 | 1017.8 |
| 20260507040013 | 45 | 49 | 0.0 | 3.0 | 0.00 | 0.00 | 0.00 | 54 | 1015.6 |
| 20260507035504 | 45 | 307 | 0.0 | 3.0 | 0.00 | 0.00 | 0.00 | 53 | 1015.6 |
| 20260507035005 | 46 | 159 | 0.0 | 3.0 | 0.00 | 0.00 | 0.00 | 54 | 1015.6 |
| 20260507034537 | 56 | 36 | 0.0 | 1.0 | 0.00 | 0.01 | 0.01 | 43 | 1017.7 |
| 20260507034525 | 46 | 265 | 0.0 | 3.0 | 0.00 | 0.00 | 0.00 | 52 | 1015.7 |
| 20260507034007 | 46 | 37 | 0.0 | 4.0 | 0.00 | 0.00 | 0.00 | 52 | 1015.6 |
| 20260507033507 | 46 | 264 | 0.0 | 4.0 | 0.00 | 0.00 | 0.00 | 52 | 1015.6 |
| 20260507033039 | 55 | 333 | 0.0 | 1.0 | 0.00 | 0.01 | 0.01 | 50 | 1017.7 |
| 20260507033022 | 46 | 259 | 1.0 | 3.0 | 0.00 | 0.00 | 0.00 | 50 | 1015.6 |
| 20260507032507 | 46 | 271 | 0.0 | 4.0 | 0.00 | 0.00 | 0.00 | 51 | 1015.6 |
| 20260507032007 | 46 | 269 | 0.0 | 4.0 | 0.00 | 0.00 | 0.00 | 50 | 1015.6 |
| 20260507031526 | 56 | 333 | 0.0 | 0.0 | 0.00 | 0.01 | 0.01 | 50 | 1017.4 |
| 20260507031007 | 47 | 290 | 1.0 | 6.0 | 0.00 | 0.00 | 0.00 | 48 | 1015.7 |
| 20260507030504 | 47 | 274 | 1.0 | 5.0 | 0.00 | 0.00 | 0.00 | 49 | 1015.7 |
| 20260507030027 | 56 | 333 | 0.0 | 0.0 | 0.00 | 0.01 | 0.01 | 51 | 1017.4 |
| 20260507030017 | 47 | 284 | 1.0 | 8.0 | 0.00 | 0.00 | 0.00 | 49 | 1015.7 |
| 20260507025505 | 47 | 338 | 2.0 | 8.0 | 0.00 | 0.00 | 0.00 | 48 | 1015.5 |
| 20260507025004 | 47 | 271 | 1.0 | 8.0 | 0.00 | 0.00 | 0.00 | 47 | 1015.7 |
| 20260507024530 | 47 | 284 | 3.0 | 8.0 | 0.00 | 0.00 | 0.00 | 47 | 1015.6 |
| 20260507024520 | 57 | 333 | 0.0 | 0.0 | 0.00 | 0.01 | 0.01 | 53 | 1017.1 |
| 20260507024004 | 47 | 309 | 0.0 | 6.0 | 0.00 | 0.00 | 0.00 | 47 | 1015.6 |
| 20260507023508 | 47 | 280 | 1.0 | 6.0 | 0.00 | 0.00 | 0.00 | 46 | 1015.6 |
| 20260507023023 | 57 | 333 | 0.0 | 0.0 | 0.00 | 0.01 | 0.01 | 54 | 1016.6 |
| 20260507023018 | 48 | 267 | 2.0 | 5.0 | 0.00 | 0.00 | 0.00 | 46 | 1015.5 |
| 20260507022508 | 48 | 325 | 2.0 | 5.0 | 0.00 | 0.00 | 0.00 | 46 | 1015.4 |
| 20260507022010 | 48 | 315 | 1.0 | 4.0 | 0.00 | 0.00 | 0.00 | 46 | 1015.4 |
| 20260507021524 | 48 | 252 | 2.0 | 6.0 | 0.00 | 0.00 | 0.00 | 45 | 1015.3 |
| 20260507021513 | 57 | 333 | 0.0 | 1.0 | 0.00 | 0.01 | 0.01 | 55 | 1016.4 |
| 20260507021009 | 48 | 291 | 1.0 | 6.0 | 0.00 | 0.00 | 0.00 | 45 | 1015.1 |
| 20260507020507 | 48 | 338 | 1.0 | 7.0 | 0.00 | 0.00 | 0.00 | 44 | 1015.1 |
| 20260507020028 | 48 | 286 | 2.0 | 7.0 | 0.00 | 0.00 | 0.00 | 44 | 1015.0 |
| 20260507020015 | 58 | 324 | 0.0 | 0.0 | 0.00 | 0.01 | 0.01 | 55 | 1016.1 |
| 20260507015514 | 48 | 275 | 2.0 | 10.0 | 0.00 | 0.00 | 0.00 | 44 | 1014.9 |
| 20260507015004 | 48 | 288 | 4.0 | 10.0 | 0.00 | 0.00 | 0.00 | 43 | 1014.9 |
| 20260507014528 | 49 | 302 | 4.0 | 9.0 | 0.00 | 0.00 | 0.00 | 43 | 1014.8 |
| 20260507014510 | 58 | 334 | 0.0 | 0.0 | 0.00 | 0.01 | 0.01 | 55 | 1015.8 |
| 20260507014004 | 49 | 280 | 3.0 | 12.0 | 0.00 | 0.00 | 0.00 | 43 | 1014.7 |
| 20260507013504 | 49 | 265 | 2.0 | 12.0 | 0.00 | 0.00 | 0.00 | 43 | 1014.7 |
| 20260507013017 | 49 | 266 | 6.0 | 12.0 | 0.00 | 0.00 | 0.00 | 42 | 1014.7 |
| 20260507013002 | 59 | 348 | 0.0 | 0.0 | 0.00 | 0.01 | 0.01 | 54 | 1015.4 |
| 20260507012509 | 49 | 258 | 3.0 | 12.0 | 0.00 | 0.00 | 0.00 | 42 | 1014.7 |
| 20260507012008 | 49 | 200 | 5.0 | 11.0 | 0.00 | 0.00 | 0.00 | 42 | 1014.6 |
| 20260507011535 | 50 | 240 | 6.0 | 11.0 | 0.00 | 0.00 | 0.00 | 42 | 1014.7 |
| 20260507011504 | 60 | 336 | 0.0 | 2.0 | 0.00 | 0.01 | 0.01 | 53 | 1015.1 |
| 20260507011008 | 50 | 259 | 5.0 | 11.0 | 0.00 | 0.00 | 0.00 | 42 | 1014.7 |
| 20260507010510 | 50 | 273 | 6.0 | 11.0 | 0.00 | 0.00 | 0.00 | 42 | 1014.5 |
| 20260507010112 | 61 | 345 | 0.0 | 0.0 | 0.00 | 0.01 | 0.01 | 53 | 1014.8 |
| 20260507010025 | 50 | 261 | 5.0 | 9.0 | 0.00 | 0.00 | 0.00 | 42 | 1014.5 |
| 20260507005509 | 50 | 280 | 4.0 | 13.0 | 0.00 | 0.00 | 0.00 | 41 | 1014.5 |
| 20260507005016 | 50 | 37 | 5.0 | 15.0 | 0.00 | 0.00 | 0.00 | 41 | 1014.4 |
| 20260507004612 | 61 | 322 | 0.0 | 0.0 | 0.00 | 0.01 | 0.01 | 52 | 1014.8 |
| 20260507004526 | 51 | 269 | 8.0 | 18.0 | 0.00 | 0.00 | 0.00 | 41 | 1014.6 |
| 20260507004005 | 51 | 277 | 4.0 | 18.0 | 0.00 | 0.00 | 0.00 | 41 | 1014.4 |
| 20260507003505 | 51 | 287 | 5.0 | 17.0 | 0.00 | 0.00 | 0.00 | 41 | 1014.4 |
| 20260507003058 | 61 | 300 | 1.0 | 6.0 | 0.00 | 0.01 | 0.01 | 52 | 1014.6 |
| 20260507003018 | 52 | 255 | 7.0 | 18.0 | 0.00 | 0.00 | 0.00 | 40 | 1014.5 |
| 20260507002505 | 52 | 272 | 8.0 | 18.0 | 0.00 | 0.00 | 0.00 | 40 | 1014.5 |
| 20260507002008 | 52 | 285 | 9.0 | 16.0 | 0.00 | 0.00 | 0.00 | 40 | 1014.4 |
| 20260507001556 | 61 | 281 | 1.0 | 6.0 | 0.00 | 0.01 | 0.01 | 52 | 1014.6 |
| 20260507001519 | 52 | 304 | 8.0 | 17.0 | 0.00 | 0.00 | 0.00 | 40 | 1014.2 |
| 20260507001005 | 52 | 267 | 6.0 | 17.0 | 0.00 | 0.00 | 0.00 | 40 | 1014.0 |
| 20260507000508 | 52 | 229 | 7.0 | 14.0 | 0.00 | 0.00 | 0.00 | 39 | 1014.1 |
| 20260507000054 | 61 | 290 | 3.0 | 7.0 | 0.00 | 0.01 | 0.01 | 52 | 1014.6 |
| 20260507000023 | 52 | 291 | 4.0 | 14.0 | 0.00 | 0.00 | 0.00 | 40 | 1013.9 |
| 20260506235509 | 53 | 279 | 3.0 | 19.0 | 0.00 | 0.00 | 0.00 | 40 | 1014.1 |
| 20260506235009 | 53 | 259 | 9.0 | 19.0 | 0.00 | 0.00 | 0.00 | 39 | 1014.1 |
| 20260506234553 | 61 | 322 | 1.0 | 6.0 | 0.00 | 0.01 | 0.01 | 52 | 1014.5 |
| 20260506234528 | 53 | 11 | 7.0 | 18.0 | 0.00 | 0.00 | 0.00 | 40 | 1013.9 |
| 20260506234011 | 53 | 247 | 9.0 | 18.0 | 0.00 | 0.00 | 0.00 | 39 | 1013.8 |
| 20260506233510 | 53 | 282 | 7.0 | 15.0 | 0.00 | 0.00 | 0.00 | 39 | 1013.8 |
| 20260506233055 | 61 | 355 | 3.0 | 7.0 | 0.00 | 0.01 | 0.01 | 51 | 1014.4 |
| 20260506233026 | 54 | 234 | 8.0 | 18.0 | 0.00 | 0.00 | 0.00 | 39 | 1013.9 |
| 20260506232508 | 54 | 332 | 6.0 | 18.0 | 0.00 | 0.00 | 0.00 | 38 | 1013.8 |
| 20260506232005 | 54 | 229 | 5.0 | 14.0 | 0.00 | 0.00 | 0.00 | 39 | 1013.9 |
| 20260506231547 | 61 | 300 | 3.0 | 6.0 | 0.00 | 0.01 | 0.01 | 52 | 1014.2 |
| 20260506231521 | 54 | 262 | 9.0 | 16.0 | 0.00 | 0.00 | 0.00 | 38 | 1013.8 |
| 20260506231009 | 54 | 275 | 8.0 | 16.0 | 0.00 | 0.00 | 0.00 | 39 | 1013.8 |
| 20260506230505 | 54 | 279 | 7.0 | 16.0 | 0.00 | 0.00 | 0.00 | 39 | 1013.6 |
| 20260506230044 | 61 | 322 | 1.0 | 6.0 | 0.00 | 0.01 | 0.01 | 51 | 1013.8 |
| 20260506230028 | 54 | 225 | 5.0 | 17.0 | 0.00 | 0.00 | 0.00 | 39 | 1013.7 |
| 20260506225506 | 54 | 303 | 8.0 | 17.0 | 0.00 | 0.00 | 0.00 | 38 | 1013.6 |
| 20260506225012 | 54 | 230 | 4.0 | 15.0 | 0.00 | 0.00 | 0.00 | 40 | 1013.5 |
| 20260506224542 | 61 | 302 | 3.0 | 7.0 | 0.00 | 0.01 | 0.01 | 51 | 1013.9 |
| 20260506224524 | 54 | 259 | 7.0 | 15.0 | 0.00 | 0.00 | 0.00 | 40 | 1013.6 |
| 20260506224012 | 54 | 252 | 3.0 | 17.0 | 0.00 | 0.00 | 0.00 | 40 | 1013.4 |
| 20260506223507 | 54 | 275 | 8.0 | 17.0 | 0.00 | 0.00 | 0.00 | 39 | 1013.4 |
| 20260506223039 | 61 | 349 | 3.0 | 8.0 | 0.00 | 0.01 | 0.01 | 51 | 1013.5 |
| 20260506223026 | 54 | 305 | 7.0 | 17.0 | 0.00 | 0.00 | 0.00 | 39 | 1013.4 |
| 20260506222509 | 54 | 291 | 9.0 | 17.0 | 0.00 | 0.00 | 0.00 | 39 | 1013.5 |
| 20260506222015 | 54 | 271 | 8.0 | 15.0 | 0.00 | 0.00 | 0.00 | 38 | 1013.4 |
| 20260506221538 | 61 | 330 | 4.0 | 9.0 | 0.00 | 0.01 | 0.01 | 51 | 1013.5 |
| 20260506221528 | 54 | 296 | 9.0 | 15.0 | 0.00 | 0.00 | 0.00 | 39 | 1013.4 |
| 20260506221007 | 54 | 315 | 6.0 | 25.0 | 0.00 | 0.00 | 0.00 | 40 | 1013.8 |
| 20260506220503 | 55 | 279 | 10.0 | 25.0 | 0.00 | 0.00 | 0.00 | 39 | 1013.4 |
| 20260506220039 | 61 | 307 | 3.0 | 6.0 | 0.00 | 0.01 | 0.01 | 51 | 1013.9 |
| 20260506220022 | 55 | 32 | 5.0 | 14.0 | 0.00 | 0.00 | 0.00 | 40 | 1013.3 |
| 20260506215506 | 55 | 234 | 6.0 | 14.0 | 0.00 | 0.00 | 0.00 | 40 | 1013.3 |
| 20260506215007 | 54 | 279 | 3.0 | 17.0 | 0.00 | 0.00 | 0.00 | 41 | 1013.2 |
| 20260506214538 | 61 | 300 | 3.0 | 9.0 | 0.00 | 0.01 | 0.01 | 51 | 1013.6 |
| 20260506214523 | 55 | 304 | 9.0 | 17.0 | 0.00 | 0.00 | 0.00 | 38 | 1013.1 |
| 20260506214007 | 56 | 259 | 7.0 | 17.0 | 0.00 | 0.00 | 0.00 | 38 | 1013.1 |
| 20260506213507 | 56 | 253 | 6.0 | 14.0 | 0.00 | 0.00 | 0.00 | 38 | 1013.1 |
| 20260506213033 | 61 | 309 | 2.0 | 8.0 | 0.00 | 0.01 | 0.01 | 49 | 1014.0 |
| 20260506213024 | 56 | 257 | 7.0 | 16.0 | 0.00 | 0.00 | 0.00 | 38 | 1013.0 |
| 20260506212506 | 56 | 239 | 8.0 | 16.0 | 0.00 | 0.00 | 0.00 | 38 | 1012.9 |
| 20260506212010 | 55 | 304 | 6.0 | 13.0 | 0.00 | 0.00 | 0.00 | 40 | 1013.0 |
| 20260506211532 | 60 | 351 | 2.0 | 6.0 | 0.00 | 0.01 | 0.01 | 49 | 1014.3 |
| 20260506211530 | 55 | 250 | 6.0 | 16.0 | 0.00 | 0.00 | 0.00 | 39 | 1013.1 |
| 20260506211004 | 55 | 288 | 7.0 | 16.0 | 0.00 | 0.00 | 0.00 | 39 | 1013.1 |